Location: *
(42.5628°N, 2.3633°E)
Time: 01:55:08
(UTC+00:00)

SJ-6B - Pass Details

Date: 30 March 2020
Orbit: 509 x 582 km, 97.6° (Epoch: 31 May)

Event Time Altitude Azimuth Distance (km) Brightness Sun altitude
Exits shadow 19:37:25 12° 167° (SSE) 1,748 5.0 -15.6°
Maximum altitude 19:41:11 89° 234° (SW) 581 2.8 -16.2°
Drops below altitude 10° 19:45:20 10° 348° (NNW) 1,903 6.0 -16.9°
Sets 19:47:31 0° 348° (NNW) 2,811 6.9 -17.3°
